TimeEDT,TemperatureF,Dew PointF,Humidity,Sea Level PressureIn,VisibilityMPH,Wind Direction,Wind SpeedMPH,Gust SpeedMPH,PrecipitationIn,Events,Conditions,WindDirDegrees,DateUTC
12:51 AM,72.0,66.0,81,29.96,10.0,Calm,Calm,-,N/A,,Mostly Cloudy,0,2013-07-28 04:51:00
1:51 AM,72.0,68.0,87,29.96,10.0,SSE,3.5,-,N/A,,Mostly Cloudy,150,2013-07-28 05:51:00
2:40 AM,71.6,68.0,88,29.96,8.0,SSE,3.5,-,N/A,,Partly Cloudy,160,2013-07-28 06:40:00
2:43 AM,71.6,68.0,88,29.96,9.0,SSE,3.5,-,N/A,,Mostly Cloudy,160,2013-07-28 06:43:00
2:51 AM,71.1,68.0,90,29.96,9.0,SSE,3.5,-,N/A,,Mostly Cloudy,150,2013-07-28 06:51:00
3:51 AM,69.1,66.9,93,29.96,9.0,SSW,3.5,-,N/A,,Mostly Cloudy,210,2013-07-28 07:51:00
4:51 AM,71.1,68.0,90,29.96,10.0,Calm,Calm,-,N/A,,Mostly Cloudy,0,2013-07-28 08:51:00
5:51 AM,71.1,68.0,90,29.96,10.0,Calm,Calm,-,N/A,,Overcast,0,2013-07-28 09:51:00
6:51 AM,71.1,68.0,90,29.99,10.0,SSE,5.8,-,N/A,,Mostly Cloudy,160,2013-07-28 10:51:00
7:51 AM,72.0,68.0,87,29.98,10.0,SSE,4.6,-,N/A,,Mostly Cloudy,160,2013-07-28 11:51:00
8:51 AM,73.9,66.0,76,29.98,10.0,Variable,4.6,-,N/A,,Overcast,0,2013-07-28 12:51:00
9:51 AM,75.0,66.0,73,29.97,10.0,SSE,8.1,-,N/A,,Overcast,160,2013-07-28 13:51:00
10:51 AM,75.9,66.9,74,29.96,10.0,SSE,9.2,-,N/A,,Mostly Cloudy,150,2013-07-28 14:51:00
11:51 AM,75.9,68.0,76,29.96,10.0,SE,10.4,-,N/A,,Overcast,140,2013-07-28 15:51:00
12:51 PM,75.0,68.0,79,29.97,10.0,SE,10.4,18.4,N/A,,Overcast,140,2013-07-28 16:51:00
1:51 PM,75.0,70.0,84,29.96,10.0,SE,11.5,-,0.00,Rain,Light Rain,140,2013-07-28 17:51:00
2:51 PM,78.1,69.1,74,29.94,10.0,SSE,6.9,-,0.00,,Mostly Cloudy,150,2013-07-28 18:51:00
3:51 PM,79.0,68.0,69,29.93,10.0,SE,11.5,20.7,N/A,,Mostly Cloudy,140,2013-07-28 19:51:00
4:51 PM,78.1,69.1,74,29.92,10.0,SE,12.7,19.6,N/A,,Mostly Cloudy,130,2013-07-28 20:51:00
5:48 PM,77.0,69.8,78,29.94,10.0,SE,6.9,-,0.00,Rain-Thunderstorm,Light Thunderstorms and Rain,130,2013-07-28 21:48:00
5:51 PM,75.9,70.0,82,29.94,10.0,SSE,5.8,-,0.00,Rain-Thunderstorm,Light Thunderstorms and Rain,150,2013-07-28 21:51:00
6:26 PM,75.2,71.6,89,29.96,7.0,Calm,Calm,-,0.05,Rain,Light Rain,0,2013-07-28 22:26:00
6:51 PM,75.0,72.0,90,29.95,7.0,NE,8.1,-,0.10,Rain,Light Rain,40,2013-07-28 22:51:00
6:59 PM,73.4,71.6,94,29.96,4.0,NE,6.9,-,0.02,Rain-Thunderstorm,Thunderstorms and Rain,50,2013-07-28 22:59:00
7:07 PM,73.4,71.6,94,29.96,5.0,East,6.9,-,0.04,Rain-Thunderstorm,Thunderstorms and Rain,90,2013-07-28 23:07:00
7:23 PM,73.4,71.6,94,29.97,1.0,Variable,6.9,-,0.05,Rain-Thunderstorm,Heavy Thunderstorms and Rain,0,2013-07-28 23:23:00
7:41 PM,71.6,69.8,94,29.97,5.0,Calm,Calm,-,0.08,Rain-Thunderstorm,Light Thunderstorms and Rain,0,2013-07-28 23:41:00
7:51 PM,72.0,70.0,93,29.96,7.0,Calm,Calm,-,0.08,Rain-Thunderstorm,Light Thunderstorms and Rain,0,2013-07-28 23:51:00
8:04 PM,73.4,71.6,94,29.95,6.0,ESE,5.8,-,0.01,Rain,Light Rain,110,2013-07-29 00:04:00
8:51 PM,73.9,71.1,91,29.95,8.0,SE,5.8,-,0.03,,Mostly Cloudy,130,2013-07-29 00:51:00
9:51 PM,73.9,71.1,91,29.97,8.0,South,4.6,-,0.00,Rain,Light Rain,180,2013-07-29 01:51:00
10:42 PM,73.4,71.6,94,29.98,7.0,SSE,5.8,-,0.02,Rain,Light Rain,150,2013-07-29 02:42:00
10:51 PM,73.0,71.1,93,29.99,7.0,South,8.1,-,0.03,Rain,Rain,170,2013-07-29 02:51:00
11:51 PM,72.0,70.0,93,29.95,10.0,South,3.5,-,0.06,Rain,Light Rain,190,2013-07-29 03:51:00